Regional Weather Roundup
Issued by NWS

Home | Current Version | Previous Version | Text Only | Print | Product List | Glossary On
Versions: 1 2 3 4 5 6 7 8 9 10 11 12 13 14 15 16 17 18 19 20 21 22 23 24 25 26 27 28 29 30 31 32 33 34 35 36 37 38 39 40 41 42 43 44 45 46 47 48 49 50
000
ASUS43 KFSD 310702
RWRSD

WEATHER ROUNDUP FOR SOUTH DAKOTA
NATIONAL WEATHER SERVICE SIOUX FALLS SD
200 AM CDT FRI OCT 31 2014

NOTE: "FAIR" INDICATES FEW OR NO CLOUDS BELOW 12,000 FEET WITH NO
SIGNIFICANT WEATHER AND/OR OBSTRUCTIONS TO VISIBILITY.


SDZ001>005-009-010-012>017-310800-
NORTHWEST AND NORTH CENTRAL SOUTH DAKOTA

CITY           SKY/WX    TMP DP  RH WIND       PRES   REMARKS
BUFFALO          N/A     33  28  81 SE20G25   30.38F WCI  21
FAITH            N/A     31  27  85 SE10      30.52R WCI  22
MOBRIDGE       PTCLDY    21  17  84 NE7       30.55R WCI  12
$$

SDZ012>016-024>037-041>051-057-063-072>074-310800-
SOUTHWEST AND SOUTH CENTRAL SOUTH DAKOTA

CITY           SKY/WX    TMP DP  RH WIND       PRES   REMARKS
RAPID CTY ARPT CLOUDY    30  28  92 SE12      30.49S WCI  20
PIERRE         CLEAR     25  19  78 CALM      30.57S
CUSTER         FOG       28  26  92 NE3       30.40S VSB 1/4
ELLSWORTH AFB  CLOUDY    31  29  91 SE14      30.47F WCI  21
PHILIP         CLOUDY    33  28  81 E12       30.54R WCI  24
PINE RIDGE     CLEAR     23  21  92 NE8       30.48R WCI  14
SPEARFISH      FAIR      25  25 100 W6        30.40F FOG     WCI  18
WINNER         CLOUDY    29  21  72 NE10      30.56R WCI  20
$$

SDZ004>011-016>023-039-040-310800-
NORTHEAST SOUTH DAKOTA

CITY           SKY/WX    TMP DP  RH WIND       PRES   REMARKS
ABERDEEN       CLEAR     19  15  84 N6        30.58R WCI  11
WATERTOWN      CLEAR     22  18  85 N10       30.51R WCI  11
SISSETON         N/A     21  18  88 N8        30.55S WCI  11
$$

SDZ017-020-022-023-036>040-048>070-310800-
SOUTHEAST SOUTH DAKOTA

CITY           SKY/WX    TMP DP  RH WIND       PRES   REMARKS
SIOUX FALLS    CLEAR     26  19  74 N10       30.50R WCI  16
HURON          CLEAR     17  14  88 NW9       30.57R WCI   6
CHAMBERLAIN    CLEAR     24  19  82 N6        30.57S WCI  17
MITCHELL       CLEAR     24  20  84 NW9       30.57R WCI  14
YANKTON        CLEAR     28  19  69 NW8       30.54S WCI  20
$$

ABBREVIATIONS USED IN REMARKS
   TC - TEMPERATURE IN CELSIUS
  WCI - WIND CHILL INDEX
   HX - HEAT INDEX
  VSB - VISIBILITY




USA.gov is the U.S. government's official web portal to all federal, state and local government web resources and services.